Defiance, OH

11:39 AM EDT on May 25, 2018 (GMT -0400)
Defiance Memorial

Weather History for KDFI - August, 2014

Change the Weather History Date:

Monday, August 11, 2014

  Actual Average Record
Temperature  
Mean Temperature 72 °F -  
Max Temperature 77 °F 81 °F 99 °F (1944)
Min Temperature 66 °F 59 °F 45 °F (1967)
Cooling Degree Days 6    
Growing Degree Days 22 (Base 50)    
Moisture  
Dew Point 67 °F    
Average Humidity 89    
Maximum Humidity 93    
Minimum Humidity 76    
Precipitation  
Precipitation 1.99 in - - ()
Sea Level Pressure  
Sea Level Pressure 29.85 in    
Wind  
Wind Speed 4 mph (NE)    
Max Wind Speed 16 mph    
Max Gust Speed 20 mph    
Visibility 5 miles    
Events Fog , Rain , Thunderstorm    
Averages and records for this station are not official NWS values.
T = Trace of Precipitation, MM = Missing Value Source: NWS Daily Summary

Daily Weather History Graph

Daily Weather History Graph

Search for Another Location

Airport or City:

Astronomy

Aug. 11, 2014 Rise Set
Actual Time 6:42 AM EDT 8:42 PM EDT
Civil Twilight 6:12 AM EDT 9:12 PM EDT
Nautical Twilight 5:35 AM EDT 9:48 PM EDT
Astronomical Twilight 4:55 AM EDT 10:28 PM EDT
Moon 9:08 PM EDT (8/11) 7:48 AM EDT (8/11)
Length of Visible Light 14h 59m
Length of Day
13h 59m
Full, 99% of the Moon is Illuminated
Aug 11
Full
Aug 17
Last Quarter
Aug 25
New
Sep 2
First Quarter
Sep 8
Full

Hourly Weather History & Observations

Time (EDT) Temp. Dew Point Humidity Pressure Visibility Wind Dir Wind Speed Gust Speed Precip Events Conditions
12:53 AM 72.0 °F 64.9 °F 78% 29.97 in 8.0 mi ENE 4.6 mph - N/A   Scattered Clouds
1:53 AM 70.0 °F 66.0 °F 87% 29.95 in 7.0 mi NE 3.5 mph - N/A   Clear
2:53 AM 70.0 °F 66.0 °F 87% 29.93 in 6.0 mi Calm Calm - N/A   Overcast
3:53 AM 71.1 °F 66.0 °F 84% 29.91 in 6.0 mi Calm Calm - N/A   Haze
4:53 AM 70.0 °F 66.0 °F 87% 29.90 in 6.0 mi NE 3.5 mph - N/A   Mostly Cloudy
5:53 AM 70.0 °F 64.9 °F 84% 29.89 in 6.0 mi ENE 3.5 mph - N/A   Haze
6:16 AM 70.0 °F 66.0 °F 87% 29.90 in 6.0 mi ENE 3.5 mph - N/A Thunderstorm Overcast
6:27 AM 70.0 °F 66.0 °F 87% 29.91 in 6.0 mi Calm Calm - N/A Thunderstorm Overcast
6:37 AM 69.1 °F 66.0 °F 90% 29.91 in - Calm Calm - 0.00 in Thunderstorm Thunderstorm
6:46 AM 69.1 °F 66.0 °F 90% 29.90 in 2.0 mi Calm Calm - 0.05 in Rain , Thunderstorm Thunderstorms and Rain
6:53 AM 69.1 °F 66.0 °F 90% 29.89 in 2.5 mi Calm Calm - 0.06 in Rain , Thunderstorm Light Thunderstorms and Rain
7:00 AM 69.1 °F 66.0 °F 90% 29.90 in 4.0 mi North 3.5 mph - 0.01 in Rain , Thunderstorm Light Thunderstorms and Rain
7:07 AM 69.1 °F 66.0 °F 90% 29.90 in 3.0 mi NE 4.6 mph - 0.01 in Rain , Thunderstorm Thunderstorms and Rain
7:35 AM 70.0 °F 66.9 °F 90% 29.89 in 2.5 mi NE 4.6 mph - 0.05 in Rain , Thunderstorm Thunderstorms and Rain
7:45 AM 70.0 °F 66.9 °F 90% 29.89 in 1.8 mi NNE 5.8 mph - 0.12 in Rain , Thunderstorm Heavy Thunderstorms and Rain
7:53 AM 70.0 °F 68.0 °F 93% 29.87 in 1.5 mi Calm Calm - 0.15 in Rain , Thunderstorm Light Rain
8:00 AM 70.0 °F 68.0 °F 93% 29.89 in 1.8 mi Calm Calm - 0.02 in Rain , Thunderstorm Thunderstorms and Rain
8:14 AM 70.0 °F 68.0 °F 93% 29.89 in 0.8 mi East 6.9 mph - 0.30 in Rain , Thunderstorm Heavy Thunderstorms and Rain
8:23 AM 70.0 °F 68.0 °F 93% 29.88 in 0.8 mi NE 9.2 mph - 0.43 in Rain , Thunderstorm Heavy Rain
8:31 AM 70.0 °F 68.0 °F 93% 29.88 in 2.0 mi ENE 5.8 mph - 0.44 in Rain , Thunderstorm Light Rain
8:33 AM 70.0 °F 68.0 °F 93% 29.88 in 3.0 mi East 5.8 mph - 0.44 in Rain , Thunderstorm Light Rain
8:46 AM 70.0 °F 66.9 °F 90% 29.88 in 1.5 mi East 9.2 mph - 0.58 in Rain , Thunderstorm Heavy Rain
8:53 AM 69.1 °F 66.0 °F 90% 29.87 in 1.0 mi NE 8.1 mph - 0.63 in Rain , Thunderstorm Thunderstorms and Rain
8:59 AM 69.1 °F 66.0 °F 90% 29.88 in 3.0 mi NE 9.2 mph - 0.00 in Rain , Thunderstorm Light Thunderstorms and Rain
9:09 AM 69.1 °F 66.0 °F 90% 29.88 in 9.0 mi ENE 5.8 mph - 0.01 in Rain Light Rain
9:24 AM 69.1 °F 66.0 °F 90% 29.87 in 1.8 mi NE 4.6 mph - 0.07 in Rain Heavy Rain
9:34 AM 69.1 °F 66.0 °F 90% 29.87 in 3.0 mi NE 4.6 mph - 0.09 in Rain Light Rain
9:44 AM 69.1 °F 66.0 °F 90% 29.87 in 2.0 mi NE 5.8 mph - 0.12 in Rain Heavy Rain
9:51 AM 69.8 °F 66.2 °F 88% 29.86 in 3.0 mi ENE 3.5 mph - 0.13 in Rain Light Rain
9:53 AM 69.1 °F 66.0 °F 90% 29.85 in 5.0 mi NE 3.5 mph - 0.13 in Rain Light Rain
10:42 AM 71.1 °F 68.0 °F 90% 29.84 in 2.5 mi ENE 5.8 mph - 0.01 in Rain Light Rain
10:53 AM 71.1 °F 69.1 °F 93% 29.83 in 1.8 mi East 4.6 mph - 0.03 in Rain Light Rain
11:07 AM 71.1 °F 68.0 °F 90% 29.85 in 1.5 mi ENE 5.8 mph - 0.04 in Rain Heavy Rain
11:22 AM 71.1 °F 68.0 °F 90% 29.85 in 1.8 mi ENE 5.8 mph - 0.11 in Rain Heavy Rain
11:32 AM 70.0 °F 66.9 °F 90% 29.85 in 1.8 mi East 6.9 mph - 0.15 in Rain Heavy Rain
11:38 AM 70.0 °F 66.9 °F 90% 29.85 in 2.5 mi ENE 9.2 mph - 0.17 in Rain Rain
11:42 AM 70.0 °F 66.9 °F 90% 29.86 in 1.5 mi East 16.1 mph 19.6 mph 0.25 in Rain Rain
11:46 AM 69.1 °F 66.0 °F 90% 29.88 in 0.8 mi East 12.7 mph 19.6 mph 0.36 in Rain , Thunderstorm Heavy Rain
11:53 AM 68.0 °F 66.0 °F 93% 29.86 in 0.5 mi NNE 3.5 mph - 0.55 in Fog , Rain , Thunderstorm Heavy Thunderstorms and Rain
12:15 PM 68.0 °F 64.9 °F 90% 29.86 in 1.8 mi NNE 6.9 mph - 0.31 in Rain , Thunderstorm Thunderstorms and Rain
12:29 PM 68.0 °F 64.9 °F 90% 29.84 in 2.0 mi NE 10.4 mph - 0.38 in Rain Rain
12:33 PM 68.0 °F 66.0 °F 93% 29.85 in 2.5 mi NNE 8.1 mph - 0.40 in Rain , Thunderstorm Rain
12:53 PM 68.0 °F 66.0 °F 93% 29.83 in 8.0 mi NNE 8.1 mph - 0.42 in Rain Light Rain
1:12 PM 69.1 °F 66.9 °F 93% 29.83 in 10.0 mi ENE 4.6 mph - 0.00 in Rain Light Rain
1:22 PM 69.1 °F 66.0 °F 90% 29.82 in 10.0 mi NE 5.8 mph - 0.00 in   Overcast
1:53 PM 71.1 °F 66.9 °F 87% 29.81 in 10.0 mi North 6.9 mph - 0.00 in   Overcast
2:53 PM 71.1 °F 68.0 °F 90% 29.78 in 10.0 mi NNE 5.8 mph - 0.02 in Rain Light Rain
3:53 PM 72.0 °F 68.0 °F 87% 29.78 in 5.0 mi North 4.6 mph - 0.00 in   Overcast
4:09 PM 72.0 °F 69.1 °F 91% 29.78 in 9.0 mi NW 6.9 mph - N/A   Overcast
4:22 PM 73.0 °F 69.1 °F 87% 29.78 in 10.0 mi NNW 8.1 mph - N/A   Overcast
4:53 PM 73.9 °F 68.0 °F 82% 29.78 in 10.0 mi NNW 4.6 mph - N/A   Overcast
5:45 PM 73.9 °F 68.0 °F 82% 29.77 in 10.0 mi NW 10.4 mph - N/A   Overcast
5:53 PM 75.0 °F 68.0 °F 79% 29.76 in 10.0 mi NW 6.9 mph - N/A   Overcast
6:53 PM 75.9 °F 68.0 °F 76% 29.75 in 10.0 mi NW 3.5 mph - N/A   Scattered Clouds
7:53 PM 75.0 °F 66.9 °F 76% 29.75 in 10.0 mi NW 5.8 mph - N/A   Scattered Clouds
8:53 PM 73.0 °F 66.9 °F 81% 29.77 in 10.0 mi West 3.5 mph - N/A   Mostly Cloudy
9:53 PM 69.1 °F 66.0 °F 90% 29.78 in 10.0 mi NW 3.5 mph - N/A   Scattered Clouds
10:53 PM 68.0 °F 64.9 °F 90% 29.77 in 10.0 mi Calm Calm - N/A   Clear
11:53 PM 66.0 °F 64.0 °F 93% 29.76 in 7.0 mi SW 3.5 mph - N/A   Clear